FW5480 Weather Reports


time (UTC)temp
F
wind
direction
speed
knots
gust
knots
rain 1hr
in
rain 24hr
in
rain mn
in
humidity
%
barometer
mb
20260507033517 49 0.0 0.0 0.00 0.35 0.35 96 1006.2
20260507032516 49 0.0 0.9 0.01 0.35 0.35 95 1006.1
20260507031516 49 0.0 0.9 0.01 0.35 0.35 95 1006.0
20260507030516 50 0.0 0.9 0.02 0.35 0.35 95 1006.1
20260507025516 50 0.0 0.9 0.02 0.35 0.35 95 1005.8
20260507024516 51 0.0 0.9 0.04 0.35 0.35 95 1005.8
20260507023516 51 0.0 1.7 0.04 0.35 0.35 95 1005.9
20260507022516 51 0.0 1.7 0.03 0.34 0.34 95 1005.9
20260507021516 52 315 0.9 2.6 0.03 0.34 0.34 94 1005.5
20260507020537 53 0.0 1.7 0.02 0.33 0.33 95 1005.7
20260507015536 54 0.0 1.7 0.03 0.33 0.33 96 1005.8
20260507014536 55 0.0 0.9 0.02 0.31 0.31 96 1005.9
20260507013516 55 0.0 0.9 0.04 0.31 0.31 96 1005.5
20260507012516 56 0.0 0.9 0.04 0.31 0.31 96 1005.2
20260507011516 56 0.0 3.5 0.04 0.31 0.31 97 1005.0
20260507010516 57 0.0 0.9 0.04 0.31 0.31 97 1004.9
20260507005517 56 0.0 2.6 0.03 0.30 0.30 97 1004.7
20260507004516 56 0.0 0.9 0.02 0.29 0.29 97 1004.5
20260507003516 56 0.0 1.7 0.01 0.27 0.27 97 1004.5
20260507002537 56 0.0 1.7 0.01 0.27 0.27 97 1004.5
20260507001516 56 90 0.9 5.2 0.01 0.27 0.27 96 1004.4
20260507000515 56 0.0 0.9 0.01 0.27 0.27 96 1004.4
20260506235516 56 135 0.9 2.6 0.01 0.27 0.27 96 1004.1
20260506234516 56 0.0 1.7 0.01 0.27 0.27 96 1003.9
20260506233516 56 90 0.9 3.5 0.00 0.26 0.26 96 1003.9
20260506232517 56 90 0.9 2.6 0.00 0.26 0.26 96 1003.8
20260506231516 56 90 0.9 2.6 0.00 0.26 0.26 96 1003.7
20260506230535 56 0.0 0.9 0.00 0.26 0.26 96 1003.7
20260506225516 56 225 0.9 6.1 0.03 0.26 0.26 96 1003.6
20260506224515 56 90 0.9 2.6 0.07 0.26 0.26 96 1003.6
20260506223536 56 315 0.9 8.7 0.08 0.26 0.26 96 1003.6
20260506222536 56 0.0 0.9 0.08 0.26 0.26 96 1003.6
20260506221516 56 0.0 1.7 0.08 0.26 0.26 96 1003.5
20260506220516 56 315 0.9 3.5 0.08 0.26 0.26 96 1003.5
20260506215537 56 0.0 2.6 0.05 0.23 0.23 96 1003.7
20260506214515 56 0.0 1.7 0.01 0.19 0.19 96 1003.6
20260506213516 56 0.0 1.7 0.02 0.18 0.18 96 1003.8
20260506212516 56 0.0 1.7 0.03 0.18 0.18 96 1003.6
20260506211517 56 0.0 2.6 0.04 0.18 0.18 96 1003.6
20260506210516 56 0.0 0.9 0.04 0.18 0.18 95 1003.8
20260506205516 56 315 0.9 2.6 0.06 0.18 0.18 95 1003.7
20260506204515 56 315 0.9 2.6 0.07 0.18 0.18 95 1003.8
20260506203516 56 0.0 1.7 0.06 0.16 0.16 95 1003.8
20260506202515 57 315 0.9 3.5 0.06 0.15 0.15 95 1003.9
20260506201515 57 0.0 0.9 0.06 0.14 0.14 95 1004.2
20260506200515 57 315 0.9 5.2 0.07 0.14 0.14 95 1004.2
20260506195517 57 0.0 2.6 0.05 0.12 0.12 95 1004.4
20260506194515 57 0.0 2.6 0.05 0.11 0.11 95 1004.4
20260506193515 57 315 0.9 3.5 0.04 0.10 0.10 95 1004.4
20260506192515 57 315 0.9 3.5 0.04 0.09 0.09 95 1004.7
20260506191535 57 0.0 0.9 0.03 0.08 0.08 94 1004.8
20260506190537 57 315 0.9 3.5 0.02 0.07 0.07 94 1004.6
20260506185515 58 0.0 1.7 0.03 0.07 0.07 94 1004.8
20260506184515 58 0.0 1.7 0.03 0.06 0.06 93 1004.8
20260506183535 58 0.0 1.7 0.05 0.06 0.06 93 1004.9
20260506182515 59 0.0 1.7 0.04 0.05 0.05 93 1005.0
20260506181515 59 0.0 1.7 0.05 0.05 0.05 92 1004.9
20260506180555 59 0.0 1.7 0.05 0.05 0.05 92 1004.9
20260506175515 60 0.0 2.6 0.04 0.04 0.04 92 1005.2
20260506174515 60 0.0 0.9 0.03 0.03 0.03 91 1005.4
20260506173515 60 0.0 1.7 0.01 0.01 0.01 90 1005.7
20260506172535 61 0.0 0.9 0.01 0.01 0.01 89 1005.9
20260506171536 61 315 0.9 2.6 0.00 0.00 0.00 86 1005.9
20260506170515 62 0.0 1.7 0.00 0.00 0.00 83 1006.1
20260506165515 63 0.0 1.7 0.00 0.00 0.00 80 1006.0
20260506164515 64 315 0.9 4.3 0.00 0.00 0.00 78 1006.0
20260506163515 64 0.0 2.6 0.00 0.00 0.00 77 1006.0
20260506162515 64 0.0 1.7 0.00 0.00 0.00 78 1006.2
20260506161515 64 0.0 1.7 0.00 0.00 0.00 78 1006.4
20260506160515 63 315 0.9 1.7 0.00 0.00 0.00 79 1006.5
20260506155515 63 315 0.9 1.7 0.00 0.00 0.00 79 1006.7
20260506154515 62 0.0 1.7 0.00 0.00 0.00 80 1006.9
20260506153515 62 0.0 3.5 0.00 0.00 0.00 80 1006.9
20260506152515 62 315 0.9 2.6 0.00 0.00 0.00 79 1007.2
20260506151515 62 0.0 1.7 0.00 0.00 0.00 80 1007.2
20260506150515 62 0.0 0.9 0.00 0.00 0.00 81 1007.3
20260506145517 62 68 0.9 6.1 0.00 0.00 0.00 81 1007.3
20260506144517 61 68 0.9 4.3 0.00 0.00 0.00 81 1007.3
20260506143517 62 68 0.9 2.6 0.00 0.00 0.00 81 1007.3
20260506142517 62 0.0 2.6 0.00 0.00 0.00 81 1007.2
20260506141515 61 68 0.9 5.2 0.00 0.00 0.00 81 1007.3
20260506140517 61 68 0.9 2.6 0.00 0.00 0.00 82 1007.3
20260506135516 61 68 1.7 4.3 0.00 0.00 0.00 82 1007.0
20260506134517 61 0.0 0.9 0.00 0.00 0.00 82 1007.1
20260506133517 61 68 0.9 2.6 0.00 0.00 0.00 82 1007.1
20260506132517 61 68 0.9 4.3 0.00 0.00 0.00 82 1007.0
20260506131517 61 135 0.9 5.2 0.00 0.00 0.00 82 1007.3
20260506130517 61 135 0.9 2.6 0.00 0.00 0.00 83 1007.3
20260506125517 60 0.0 1.7 0.00 0.00 0.00 85 1007.4
20260506124517 59 135 0.9 2.6 0.00 0.00 0.00 85 1007.5
20260506123517 59 135 0.9 2.6 0.00 0.00 0.00 86 1007.6
20260506122517 59 135 0.9 3.5 0.00 0.00 0.00 86 1007.7
20260506121516 58 0.0 1.7 0.00 0.00 0.00 87 1007.6
20260506120517 58 0.0 1.7 0.00 0.00 0.00 87 1007.8
20260506115517 58 0.0 1.7 0.00 0.00 0.00 88 1007.6
20260506114517 57 135 0.9 2.6 0.00 0.00 0.00 88 1007.6
20260506113537 57 135 0.9 1.7 0.00 0.00 0.00 88 1007.8
20260506112517 57 0.0 1.7 0.00 0.00 0.00 88 1007.7
20260506111516 57 135 0.9 2.6 0.00 0.00 0.00 89 1007.8
20260506110517 56 135 0.9 3.5 0.00 0.00 0.00 90 1008.1
20260506105517 56 0.0 2.6 0.00 0.00 0.00 90 1008.1
20260506104536 56 68 0.9 1.7 0.00 0.00 0.00 90 1008.2
20260506103517 56 0.0 1.7 0.00 0.00 0.00 90 1008.1
20260506102516 55 68 0.9 1.7 0.00 0.00 0.00 91 1007.7
20260506101537 55 68 0.9 1.7 0.00 0.00 0.00 91 1008.0
20260506100516 54 0.0 0.9 0.00 0.00 0.00 91 1007.7
20260506095516 54 0.0 1.7 0.00 0.00 0.00 90 1007.8
20260506094516 54 68 0.9 1.7 0.00 0.00 0.00 90 1007.9
20260506093516 54 68 0.9 1.7 0.00 0.00 0.00 89 1007.9
20260506092543 55 68 1.7 7.0 0.00 0.00 0.00 89 1007.9
20260506091518 55 68 0.9 1.7 0.00 0.00 0.00 89 1008.0
20260506090517 55 0.0 1.7 0.00 0.00 0.00 88 1008.0
20260506085516 55 68 0.9 5.2 0.00 0.00 0.00 88 1007.9
20260506084516 55 0.0 0.9 0.00 0.00 0.00 88 1008.1
20260506083516 55 135 0.9 2.6 0.00 0.00 0.00 88 1008.2
20260506082536 55 0.0 1.7 0.00 0.00 0.00 88 1008.1
20260506081516 55 0.0 1.7 0.00 0.00 0.00 88 1008.2
20260506080516 55 0.0 0.9 0.00 0.00 0.00 87 1008.2
20260506073516 56 0.0 0.9 0.00 0.00 0.00 86 1008.3
20260506072516 56 0.0 1.7 0.00 0.00 0.00 86 1008.4
20260506071516 56 0.0 0.9 0.00 0.00 0.00 84 1008.3
20260506070516 56 0.0 1.7 0.00 0.00 0.00 84 1008.4
20260506062516 57 0.0 1.7 0.00 0.00 0.00 81 1008.3
20260506061516 57 135 0.9 1.7 0.00 0.00 0.00 81 1008.2
20260506060516 58 135 0.9 1.7 0.00 0.00 0.00 80 1008.3
20260506050516 58 0.0 0.9 0.00 0.00 0.00 77 1008.6
20260506044517 59 68 0.9 1.7 0.00 0.00 0.00 77 1008.6
20260506043537 59 0.0 0.9 0.00 0.00 0.00 76 1008.6
20260506042516 59 68 0.9 2.6 0.00 0.00 0.00 75 1008.6
20260506041516 59 68 0.9 1.7 0.00 0.00 0.00 75 1008.7
20260506040516 59 0.0 1.7 0.00 0.00 0.00 75 1008.6
20260506035537 59 68 0.9 2.6 0.00 0.00 0.00 75 1008.6
20260506034516 59 68 0.9 2.6 0.00 0.00 0.00 74 1008.6